Regional Weather Roundup
Issued by NWS Midland/Odessa, TX

Home | Current Version | Previous Version | Text Only | Print | Product List | Glossary On
Versions: 1 2 3 4 5 6 7 8 9 10 11 12 13 14 15 16 17 18 19 20 21 22 23 24 25 26 27 28 29 30 31 32 33 34 35 36 37 38 39 40 41 42 43 44 45 46 47 48 49 50
000
ASUS44 KMAF 221610
RWRMAF
MIDLAND AREA WEATHER ROUNDUP
NATIONAL WEATHER SERVICE MIDLAND TX
1000 AM CST MON DEC 22 2014

...IN SOUTHWEST TEXAS AND SOUTHEAST NEW MEXICO...

CITY           SKY/WX    TMP DP  RH WIND       PRES   REMARKS
ALPINE         CLOUDY    56  29  34 W14G24    29.96S
ANDREWS        FAIR      56  31  38 W15G21    29.78R
ARTESIA        CLOUDY    55  32  41 W14       29.80F
BIG SPRING     CLOUDY    59  33  38 CALM      29.77R
CARLSBAD       CLOUDY    63  30  28 W22       29.77S
DRYDEN           N/A     68  31  25 SW22G28   29.77F
FORT STOCKTON  PTSUNNY   62  31  31 SW13      29.81R
GUAD PASS      NOT AVBL
HOBBS          SUNNY     55  30  38 W12G17    29.80R
MARFA          CLOUDY    52  28  40 N6        29.97R
MIDLAND AIRPK  CLOUDY    60  31  33 NW14      29.77R
MIDLAND INTL   CLOUDY    58  31  35 NW15      29.77R
ODESSA         CLOUDY    56  30  37 W12       29.78R
PECOS          CLOUDY    61  32  33 SW21      29.80S
PRESIDIO       FAIR      56  29  35 CALM      29.92S
SEMINOLE       CLOUDY    55  32  40 W14       29.78S
SNYDER         PTSUNNY   55  33  43 NW12      29.74R
WINK           CLOUDY    59  30  33 W13       29.78R
$$
...OTHER STATIONS IN TEXAS...

CITY           SKY/WX    TMP DP  RH WIND       PRES   REMARKS
ABILENE        MOSUNNY   61  34  36 NW16G26   29.69R
AMARILLO       MOSUNNY   47  30  51 N24G31    29.76R WCI  39
AUSTIN         PTSUNNY   62  54  74 SW10      29.74R
BROWNSVILLE    CLOUDY    68  63  84 S13       29.81S
CORPUS CHRISTI CLOUDY    61  60  97 SW12      29.80R FOG
DALLAS FTW     MOSUNNY   59  49  69 SW13      29.60S
DEL RIO        CLOUDY    53  52  96 NW5       29.80R FOG
EL PASO        MOSUNNY   55  33  43 S9        29.90F
HOUSTON INT    CLOUDY    65  60  84 SW9G22    29.75F
LUBBOCK        PTSUNNY   50  32  50 N18G25    29.74R
SAN ANGELO     PTSUNNY   60  41  49 W15       29.74S
SAN ANTONIO    CLOUDY    59  53  80 W10       29.78R
WACO           MOSUNNY   61  52  72 SW14      29.66S
WICHITA FALLS  NOT AVBL
$$
...OTHER LOCATIONS IN NEW MEXICO...

CITY           SKY/WX    TMP DP  RH WIND       PRES   REMARKS
ALAMAGORDO     MOSUNNY   41  32  70 CALM      29.91S
ALBUQUERQUE    PTSUNNY   41  33  73 S6        29.91S WCI  37
CANNON AFB     NOT AVBL
CLOVIS         PTSUNNY   43  28  56 N16G23    29.80R WCI  35
HOLLOMAN AFB   NOT AVBL
ROSWELL        CLOUDY    64  29  26 NW28G35   29.77R
RUIDOSO        SUNNY     48  27  43 NW21G40   29.88F
SANTA FE       MOSUNNY   43  29  57 W12G17    29.85S WCI  37
TRUTH OR CONSE SUNNY     56  32  40 NW13G22   29.92R
TUCUMCARI      CLOUDY    44  29  55 N12       29.79R WCI  38
$$


USA.gov is the U.S. government's official web portal to all federal, state and local government web resources and services.